Showing default

SNAP-3 JIMI, 40975

Orbit data source: Space-Track

SNAP-3 JIMI, 40975 is a payload satellite owned by SMDC (US) in LEO that was launched on Thu, 08 Oct 2015 UTC via an ATLAS V 401 launch vehicle from the Air Force Western Test Range (AFWTR). Payload-class satellites include a variety of spacecraft equipped with specific instruments for various scientific and technological missions. These include communications satellites like Starlink; space stations such as the ISS; scientific satellites like the Hubble; Earth observation satellites from companies like Planet Labs, Umbra, and HawkEye 360; GPS; miniature CubeSats for education and research; and military/defense satellites.

Loading next visibility...
Identifier
40975, 2015-058M
Orbit
LEO
Country
Flag of USUS
Related business
Manufacturer
Duocomm Miltec
Mission
Operational Defense Communications
Bus & Motor
CUBESAT 3U, Unknown motor
Mass
5.3 kg wet, 5.3 kg dry
Launch date (UTC)
2015-10-08 (10 years ago)
Launch vehicle
ATLAS V 401
Launch site
Air Force Western Test Range (AFWTR)
Object type
Payload
Rocket body
Debris
Shape & HBR
Box + 8 Pan, 0.3 m
Radar Cross Section
0.085 m², Small (<0.1 m²)

Expand to show TLE details & history
Last TLE update: 20 hours ago

TLE from 20 hours ago
0 SNAP-3 JIMI
1 40975U 15058M   25260.24949240  .00008241  00000-0  60092-3 0  9998
2 40975  64.7684   0.8262 0126489 164.6503 195.8507 14.98067296 73271
Epoch: 2025-09-17T05:59Z
TLE epoch observation values (Epoch: 2025-09-17T05:59:16.143Z)
Latitude
-0.00006°
Longitude
-85.41924°
Altitude
659.552 km
Speed
7.482 km/s
True Right ascension
00h 03m 18s
True Declination
0° 00' 00"
Sunlit
Object was in full shadow at epoch
Visualization orbit readout
Latitude
Unknown
Longitude
Unknown
Altitude
Unknown
Speed
Unknown
Apparent Right ascension
Unknown
Apparent Declination
Unknown
Sunlit
N/A
Visualization observer readout
Local Sidereal Time
18:46:52
Azimuth
Unknown
Elevation
Unknown
Doppler factor
Unknown
Orbital elements
Apogee altitude
659.336 km
Perigee altitude
483.527 km
Semi-major axis
6,949.569 km
Eccentricity
0.01265
Inclination
64.7684°
RAAN
0.8262°
Arg. of periapsis
164.6503°
True anomaly
195.46075°
Mean anomaly
195.8507°
Eccentric anomaly
195.65513°
Mean motion
3.74633 °/min
Orbital period
96.09 mins
BSTAR
0.00060092
Loading maneuver chart data...
Computing Atmospheric mass density...
Loading historical data...
Loading historical data...
Loading historical data...
Loading historical data...
Loading historical data...
Loading historical data...
Loading historical data...

Documentation

Showing up to 5 results
|